Weather History for Fryeburg, ME

Change the Weather History Date:

Monday, May 27, 2013

  Actual Average Record
Temperature  
Mean Temperature 50 °F -  
Max Temperature 68 °F 68 °F 90 °F (2011)
Min Temperature 34 °F 41 °F 28 °F (1997)
Degree Days  
Heating Degree Days 15    
Moisture  
Dew Point 34 °F    
Average Humidity 55    
Maximum Humidity 92    
Minimum Humidity 25    
Precipitation  
Precipitation 0.00 in - - ()
Sea Level Pressure  
Sea Level Pressure 30.09 in    
Wind  
Wind Speed 5 mph (WNW)    
Max Wind Speed 15 mph    
Max Gust Speed 28 mph    
Visibility 10 miles    
Events      
Averages and records for this station are not official NWS values.
T = Trace of Precipitation, MM = Missing Value Source: NWS Daily Summary

Daily Weather History Graph

Daily Weather History Graph

Search for Another Location

Airport:

Trip Planner

Search our weather history database for the weather conditions in past years. The results will help you decide how hot, cold, wet, or windy it might be!

Date:

Astronomy

May. 27, 2013 Rise Set
Actual Time 5:06 AM EDT 8:15 PM EDT
Civil Twilight 4:32 AM EDT 8:50 PM EDT
Nautical Twilight 3:47 AM EDT 9:35 PM EDT
Astronomical Twilight 2:53 AM EDT 10:30 PM EDT
Moon 10:49 PM EDT (5/27) 7:41 AM EDT (5/27)
Length of Visible Light 16h 18m
Length of Day
15h 08m
Waning Gibbous, 91% of the Moon is Illuminated
May 27
Waning Gibbous
May 31
Last Quarter
Jun 8
New
Jun 16
First Quarter
Jun 23
Full

Hourly Weather History & Observations

Time (EDT) Temp. Windchill Dew Point Humidity Pressure Visibility Wind Dir Wind Speed Gust Speed Precip Events Conditions
12:54 AM 39.9 °F 37.8 °F 34.0 °F 79% 30.03 in 10.0 mi SW 3.5 mph - N/A   Clear
1:54 AM 37.0 °F - 34.0 °F 89% 30.04 in 10.0 mi Calm Calm - N/A   Clear
2:54 AM 34.0 °F - 32.0 °F 92% 30.04 in 10.0 mi Calm Calm - N/A   Clear
3:54 AM 36.0 °F - 33.1 °F 89% 30.05 in 10.0 mi Calm Calm - N/A   Clear
4:54 AM 37.0 °F - 32.0 °F 82% 30.06 in 10.0 mi Calm Calm - N/A   Partly Cloudy
5:54 AM 39.0 °F 34.8 °F 34.0 °F 82% 30.07 in 10.0 mi ESE 5.8 mph - N/A   Clear
6:54 AM 46.0 °F 43.1 °F 36.0 °F 68% 30.08 in 10.0 mi WSW 5.8 mph - N/A   Clear
7:54 AM 52.0 °F - 37.0 °F 57% 30.08 in 10.0 mi WSW 8.1 mph - N/A   Clear
8:54 AM 55.0 °F - 35.1 °F 47% 30.08 in 10.0 mi WNW 12.7 mph 19.6 mph N/A   Clear
9:54 AM 60.1 °F - 33.1 °F 36% 30.08 in 10.0 mi West 9.2 mph 16.1 mph N/A   Clear
10:54 AM 62.1 °F - 30.0 °F 30% 30.08 in 10.0 mi Variable 5.8 mph 21.9 mph N/A   Partly Cloudy
11:54 AM 62.1 °F - 32.0 °F 32% 30.08 in 10.0 mi WNW 12.7 mph 24.2 mph N/A   Clear
12:54 PM 64.9 °F - 33.1 °F 31% 30.08 in 10.0 mi West 15.0 mph 23.0 mph N/A   Partly Cloudy
1:54 PM 63.0 °F - 32.0 °F 31% 30.06 in 10.0 mi NNW 11.5 mph 19.6 mph N/A   Mostly Cloudy
2:54 PM 66.0 °F - 30.9 °F 27% 30.06 in 10.0 mi Variable 6.9 mph 17.3 mph N/A   Mostly Cloudy
3:54 PM 66.9 °F - 30.0 °F 25% 30.06 in 10.0 mi WNW 8.1 mph 21.9 mph N/A   Clear
4:54 PM 66.0 °F - 30.0 °F 26% 30.06 in 10.0 mi WNW 11.5 mph 23.0 mph N/A   Clear
5:54 PM 66.0 °F - 30.0 °F 26% 30.08 in 10.0 mi WNW 10.4 mph 27.6 mph N/A   Clear
6:54 PM 64.9 °F - 30.9 °F 28% 30.10 in 10.0 mi NW 4.6 mph - N/A   Clear
7:54 PM 59.0 °F - 34.0 °F 39% 30.12 in 10.0 mi NW 5.8 mph - N/A   Clear
8:54 PM 51.1 °F - 39.9 °F 66% 30.14 in 10.0 mi West 3.5 mph - N/A   Clear
9:54 PM 48.0 °F - 39.0 °F 71% 30.16 in 10.0 mi WNW 3.5 mph - N/A   Clear
10:54 PM 42.1 °F - 39.9 °F 92% 30.17 in 10.0 mi Calm Calm - N/A   Clear
11:54 PM 42.1 °F 40.2 °F 37.0 °F 82% 30.19 in 10.0 mi NW 3.5 mph - N/A   Clear